Location: Ben Robins Landing
(38.6582°N, 75.1566°W)
Time: 07:19:39
(UTC+00:00)

Meteor PRIRODA - Pass Details

Date: 10 September 2024
Orbit: 422 x 434 km, 97.5° (Epoch: 12 October)

Event Time Altitude Azimuth Distance (km) Brightness Sun altitude
Rises 13:28:08 0° 3° (N) 2,387 6.9 31.7°
Reaches altitude 10° 13:30:13 10° 356° (N) 1,516 5.9 32.1°
Drops below altitude 10° 13:36:16 10° 216° (SW) 1,504 6.0 33.2°
Enters shadow 14:13:04 -76° 175° (S) 12,836 10.4 39.6°
Exits shadow 14:35:46 -56° 31° (NNE) 11,094 10.0 43.2°
Maximum altitude 00:00:39 40° 74° (ENE) 653 3.8 -9.4°
